CW4621 Weather Reports


Display with metric or nautical units.
time (UTC)temp
F
wind
direction
speed
MPH
gust
MPH
rain 1hr
in
rain 24hr
in
rain mn
in
humidity
%
barometer
mb
20260902064604 72 29 1.0 3.0 0.00 0.10 0.00 95 1016.1
20260902064104 72 46 1.0 3.0 0.00 0.10 0.00 95 1016.1
20260902063605 72 25 1.0 3.0 0.00 0.10 0.00 95 1016.2
20260902063104 72 175 0.0 2.0 0.00 0.10 0.00 95 1016.3
20260902062604 72 13 0.0 3.0 0.00 0.10 0.00 95 1016.2
20260902062104 72 82 0.0 3.0 0.00 0.10 0.00 95 1016.3
20260902060605 72 84 0.0 2.0 0.00 0.10 0.00 95 1016.0
20260902060105 73 9 0.0 2.0 0.00 0.10 0.00 95 1016.0
20260902055604 73 12 0.0 1.0 0.00 0.10 0.00 95 1015.9
20260902055104 73 15 1.0 3.0 0.00 0.10 0.00 95 1015.9
20260902054604 73 352 0.0 0.0 0.00 0.10 0.00 95 1015.9
20260902054105 73 347 0.0 1.0 0.00 0.10 0.00 95 1015.9
20260902053604 73 347 0.0 1.0 0.00 0.10 0.00 95 1016.0
20260902053104 73 347 0.0 0.0 0.00 0.10 0.00 94 1016.0
20260902052604 73 347 0.0 0.0 0.00 0.10 0.00 94 1016.1
20260902051605 73 347 0.0 0.0 0.00 0.10 0.00 94 1016.2
20260902050604 73 347 0.0 1.0 0.00 0.10 0.00 94 1016.2
20260902050104 73 358 0.0 1.0 0.00 0.10 0.00 94 1016.2
20260902045604 73 51 0.0 1.0 0.00 0.10 0.00 94 1016.2
20260902045104 73 51 0.0 1.0 0.00 0.10 0.00 94 1016.2
20260902044604 73 51 0.0 1.0 0.00 0.10 0.00 94 1016.3
20260902044105 74 52 0.0 0.0 0.00 0.10 0.00 94 1016.3
20260902043604 74 51 0.0 1.0 0.00 0.10 0.00 94 1016.3
20260902043105 74 60 0.0 1.0 0.00 0.10 0.00 94 1016.3
20260902042104 73 207 0.0 1.0 0.00 0.10 0.00 94 1016.0
20260902041604 73 217 0.0 1.0 0.00 0.10 0.00 94 1015.9
20260902041104 73 217 0.0 1.0 0.00 0.10 0.00 94 1015.8
20260902040604 73 217 0.0 1.0 0.00 0.10 0.00 93 1015.7
20260902040105 73 191 0.0 0.0 0.00 0.10 0.00 92 1015.6
20260902035604 73 191 0.0 0.0 0.00 0.10 0.10 92 1015.7
20260902035104 73 191 0.0 0.0 0.00 0.10 0.10 92 1015.7
20260902034604 73 191 0.0 0.0 0.00 0.10 0.10 92 1015.7
20260902034105 73 191 0.0 0.0 0.00 0.10 0.10 91 1015.6
20260902033104 73 191 0.0 0.0 0.00 0.10 0.10 89 1015.5
20260902032604 73 191 0.0 0.0 0.00 0.10 0.10 89 1015.3
20260902032105 74 191 0.0 2.0 0.00 0.10 0.10 89 1015.3
20260902031604 74 181 1.0 2.0 0.00 0.10 0.10 89 1015.1
20260902031104 74 113 0.0 2.0 0.00 0.10 0.10 88 1015.0
20260902030604 74 214 1.0 2.0 0.00 0.10 0.10 88 1015.0
20260902030105 74 167 1.0 1.0 0.00 0.10 0.10 87 1014.9
20260902024104 74 127 0.0 0.0 0.00 0.10 0.10 86 1014.9
20260902023604 75 127 0.0 3.0 0.00 0.10 0.10 86 1015.0
20260902023104 75 195 1.0 3.0 0.00 0.10 0.10 86 1015.0
20260902022604 75 133 0.0 3.0 0.00 0.10 0.10 86 1014.9
20260902022104 75 89 0.0 1.0 0.00 0.10 0.10 85 1015.0
20260902021604 75 84 0.0 2.0 0.02 0.10 0.10 85 1014.9
20260902021104 75 56 0.0 1.0 0.03 0.10 0.10 85 1014.8
20260902020604 75 20 0.0 3.0 0.03 0.10 0.10 85 1015.1
20260902020104 75 48 0.0 1.0 0.03 0.10 0.10 84 1015.5
20260902015604 75 37 0.0 1.0 0.03 0.10 0.10 84 1015.4
20260902014604 75 12 0.0 2.0 0.07 0.10 0.10 83 1015.6
20260902013605 76 27 0.0 2.0 0.10 0.10 0.10 82 1015.3
20260902013104 76 136 0.0 1.0 0.10 0.10 0.10 80 1014.6
20260902012605 76 141 0.0 3.0 0.10 0.10 0.10 80 1013.7
20260902012106 77 309 1.0 5.0 0.10 0.10 0.10 79 1013.5
20260902011605 77 251 1.0 5.0 0.08 0.08 0.08 78 1013.5
20260902011105 78 254 3.0 8.0 0.07 0.07 0.07 78 1013.7
20260902010105 79 145 0.0 1.0 0.07 0.07 0.07 79 1013.4
20260902005605 80 224 1.0 3.0 0.07 0.07 0.07 79 1012.3
20260902005105 81 333 0.0 3.0 0.05 0.05 0.05 78 1012.5
20260902004605 82 230 1.0 3.0 0.03 0.03 0.03 77 1012.4
20260902004105 83 20 2.0 3.0 0.02 0.02 0.02 75 1012.5
20260902003604 84 13 0.0 2.0 0.00 0.00 0.00 75 1012.6
20260902003104 85 241 0.0 1.0 0.00 0.00 0.00 74 1012.5
20260902002605 85 259 0.0 1.0 0.00 0.00 0.00 72 1012.1
20260902002105 85 89 0.0 0.0 0.00 0.00 0.00 71 1012.0
20260902001605 86 89 0.0 1.0 0.00 0.00 0.00 70 1012.0
20260902001105 86 89 0.0 1.0 0.00 0.00 0.00 70 1012.2
20260902000604 86 154 0.0 1.0 0.00 0.00 0.00 69 1012.1
20260902000105 86 196 0.0 2.0 0.00 0.00 0.00 69 1012.1
20260901235605 86 246 0.0 1.0 0.00 0.00 0.00 69 1012.2
20260901235104 86 250 0.0 1.0 0.00 0.00 0.00 68 1012.3
20260901234604 86 250 0.0 1.0 0.00 0.00 0.00 68 1011.9
20260901234104 86 251 0.0 1.0 0.00 0.00 0.00 67 1012.0
20260901233604 87 255 1.0 3.0 0.00 0.00 0.00 67 1011.8
20260901233105 87 147 0.0 1.0 0.00 0.00 0.00 67 1012.1
20260901232104 87 300 0.0 1.0 0.00 0.00 0.00 66 1012.2
20260901231605 87 302 0.0 1.0 0.00 0.00 0.00 66 1012.3
20260901231104 88 341 0.0 2.0 0.00 0.00 0.00 66 1012.2
20260901230604 88 242 0.0 5.0 0.00 0.00 0.00 66 1012.2
20260901230106 88 220 0.0 2.0 0.00 0.00 0.00 66 1012.3
20260901225604 88 225 1.0 3.0 0.00 0.00 0.00 66 1012.0
20260901225104 88 272 0.0 1.0 0.00 0.00 0.00 66 1012.1
20260901224604 88 302 0.0 2.0 0.00 0.00 0.00 66 1012.3
20260901224105 89 292 1.0 3.0 0.00 0.00 0.00 65 1012.3
20260901223105 89 214 1.0 3.0 0.00 0.00 0.00 64 1012.1
20260901222604 89 230 1.0 3.0 0.00 0.00 0.00 65 1012.0
20260901222105 89 223 1.0 3.0 0.00 0.00 0.00 64 1012.0
20260901221105 90 236 1.0 3.0 0.00 0.00 0.00 64 1011.8
20260901220605 90 262 1.0 3.0 0.00 0.00 0.00 63 1011.9
20260901220105 90 240 1.0 3.0 0.00 0.00 0.00 63 1012.1
20260901215605 90 254 0.0 3.0 0.00 0.00 0.00 63 1012.4
20260901215104 91 316 1.0 5.0 0.00 0.00 0.00 62 1012.4
20260901214606 91 269 2.0 3.0 0.00 0.00 0.00 62 1012.5
20260901214104 91 142 1.0 3.0 0.00 0.00 0.00 62 1012.4
20260901213605 91 187 2.0 7.0 0.00 0.00 0.00 61 1012.5
20260901213105 91 248 2.0 3.0 0.00 0.00 0.00 61 1012.4
20260901212605 91 211 2.0 5.0 0.00 0.00 0.00 61 1012.3
20260901212104 92 216 1.0 6.0 0.00 0.00 0.00 60 1012.4
20260901211604 91 173 1.0 3.0 0.00 0.00 0.00 61 1012.3
20260901211104 91 230 1.0 3.0 0.00 0.00 0.00 61 1012.3
20260901210605 91 243 1.0 6.0 0.00 0.00 0.00 61 1012.4
20260901210104 91 280 2.0 3.0 0.00 0.00 0.00 60 1012.4
20260901205605 91 54 2.0 3.0 0.00 0.00 0.00 60 1012.4
20260901204605 91 220 3.0 5.0 0.00 0.00 0.00 60 1012.5
20260901204105 91 251 1.0 3.0 0.00 0.00 0.00 60 1012.5
20260901203605 92 232 3.0 10.0 0.00 0.00 0.00 59 1012.6
20260901203104 92 199 2.0 6.0 0.00 0.00 0.00 59 1012.6
20260901202104 92 33 2.0 6.0 0.00 0.00 0.00 59 1012.7
20260901201605 92 26 1.0 5.0 0.00 0.00 0.00 59 1012.6
20260901200604 92 199 2.0 7.0 0.00 0.00 0.00 59 1012.5
20260901200104 92 213 2.0 6.0 0.00 0.00 0.00 59 1012.5
20260901195604 92 253 2.0 7.0 0.00 0.00 0.00 60 1012.6
20260901195105 93 172 1.0 3.0 0.00 0.00 0.00 59 1012.6
20260901194604 93 186 1.0 5.0 0.00 0.00 0.00 60 1012.7
20260901194105 92 178 1.0 3.0 0.00 0.00 0.00 61 1012.6
20260901193605 92 158 1.0 3.0 0.00 0.00 0.00 62 1012.8
20260901193104 92 216 1.0 7.0 0.00 0.00 0.00 62 1012.9
20260901192604 91 190 2.0 6.0 0.00 0.00 0.00 60 1013.1
20260901191605 91 230 2.0 5.0 0.00 0.00 0.00 60 1013.0
20260901191104 91 225 2.0 6.0 0.00 0.00 0.00 61 1013.1
20260901190604 91 277 2.0 5.0 0.00 0.00 0.00 61 1013.1
20260901190105 91 111 1.0 3.0 0.00 0.00 0.00 61 1013.1
20260901185104 90 231 2.0 3.0 0.00 0.00 0.00 63 1013.2
20260901184604 90 175 2.0 6.0 0.00 0.00 0.00 64 1013.2
20260901184105 90 267 2.0 6.0 0.00 0.00 0.00 64 1013.4
20260901183604 90 76 1.0 3.0 0.00 0.00 0.00 64 1013.4
20260901183104 90 190 2.0 3.0 0.00 0.00 0.00 66 1013.4
20260901182604 90 238 1.0 3.0 0.00 0.00 0.00 66 1013.5
20260901181604 89 215 2.0 6.0 0.00 0.00 0.00 65 1013.5
20260901181105 89 323 1.0 3.0 0.00 0.00 0.00 66 1013.5
20260901180605 88 280 1.0 6.0 0.00 0.00 0.00 67 1013.7
20260901180105 88 5 1.0 3.0 0.00 0.00 0.00 67 1013.7
20260901175604 88 151 3.0 6.0 0.00 0.00 0.00 66 1013.8
20260901175104 88 135 1.0 3.0 0.00 0.00 0.00 68 1013.8
20260901174604 87 154 1.0 3.0 0.00 0.00 0.00 69 1013.8
20260901174105 87 328 0.0 3.0 0.00 0.00 0.00 72 1013.8
20260901173604 86 232 1.0 3.0 0.00 0.00 0.00 74 1013.9
20260901173105 85 242 0.0 1.0 0.00 0.00 0.00 74 1014.0
20260901172604 84 233 1.0 2.0 0.00 0.00 0.00 75 1014.1
20260901172104 84 26 1.0 3.0 0.00 0.00 0.00 75 1014.1
20260901171605 84 44 0.0 3.0 0.00 0.00 0.00 75 1014.2
20260901171104 84 222 1.0 3.0 0.00 0.00 0.00 74 1014.3
20260901170605 84 214 0.0 1.0 0.00 0.00 0.00 75 1014.3
20260901170104 84 186 0.0 1.0 0.00 0.00 0.00 75 1014.3
20260901165604 84 184 0.0 2.0 0.00 0.00 0.00 75 1014.5
20260901164605 84 195 0.0 1.0 0.00 0.00 0.00 75 1014.6
20260901164104 84 229 1.0 2.0 0.00 0.00 0.00 74 1014.7
20260901163604 84 8 0.0 1.0 0.00 0.00 0.00 75 1014.7
20260901163104 84 161 0.0 0.0 0.00 0.00 0.00 76 1014.5
20260901162604 83 161 0.0 1.0 0.00 0.00 0.00 75 1014.6
20260901162104 83 205 1.0 3.0 0.00 0.00 0.00 75 1014.5
20260901161604 83 252 0.0 3.0 0.00 0.00 0.00 75 1014.5
20260901161104 83 215 0.0 3.0 0.00 0.00 0.00 76 1014.7
20260901160604 83 271 0.0 2.0 0.00 0.00 0.00 75 1014.7
20260901155104 84 239 0.0 3.0 0.00 0.00 0.00 74 1014.8
20260901154605 84 294 0.0 1.0 0.00 0.00 0.00 74 1014.9
20260901154104 84 15 0.0 2.0 0.00 0.00 0.00 74 1015.1
20260901153605 84 344 1.0 3.0 0.00 0.00 0.00 74 1015.2
20260901153104 84 220 0.0 2.0 0.00 0.00 0.00 74 1015.2
20260901152605 84 235 1.0 3.0 0.00 0.00 0.00 74 1015.2
20260901152105 84 296 0.0 2.0 0.00 0.00 0.00 75 1015.2
20260901151605 84 352 1.0 3.0 0.00 0.00 0.00 75 1015.2
20260901151104 83 338 1.0 3.0 0.00 0.00 0.00 76 1015.2
20260901150604 83 256 1.0 3.0 0.00 0.00 0.00 76 1015.2
20260901150104 83 319 1.0 3.0 0.00 0.00 0.00 76 1015.2
20260901145604 83 6 1.0 5.0 0.00 0.00 0.00 76 1015.3
20260901145104 83 333 1.0 6.0 0.00 0.00 0.00 77 1015.2
20260901144604 83 228 2.0 5.0 0.00 0.00 0.00 77 1015.2
20260901144104 82 21 0.0 3.0 0.00 0.00 0.00 78 1015.2
20260901143605 82 343 0.0 3.0 0.00 0.00 0.00 79 1015.2
20260901143104 82 269 0.0 3.0 0.00 0.00 0.00 78 1015.1
20260901142604 82 24 0.0 1.0 0.00 0.00 0.00 78 1014.9
20260901142105 82 78 0.0 1.0 0.00 0.00 0.00 78 1014.9
20260901141604 82 215 1.0 3.0 0.00 0.00 0.00 78 1014.9
20260901141104 82 242 1.0 3.0 0.00 0.00 0.00 77 1014.8
20260901140604 82 107 0.0 1.0 0.00 0.00 0.00 77 1014.8
20260901140105 82 348 1.0 2.0 0.00 0.00 0.00 76 1014.8
20260901135105 83 248 0.0 3.0 0.00 0.00 0.00 77 1014.8
20260901134604 82 83 0.0 3.0 0.00 0.00 0.00 77 1014.8
20260901133605 83 349 1.0 3.0 0.00 0.00 0.00 77 1014.7
20260901133105 82 339 1.0 3.0 0.00 0.00 0.00 78 1014.8
20260901132604 82 238 1.0 3.0 0.00 0.00 0.00 78 1014.9
20260901132104 82 215 0.0 5.0 0.00 0.00 0.00 79 1014.9
20260901131605 81 224 1.0 3.0 0.00 0.00 0.00 79 1015.0
20260901131105 81 278 2.0 3.0 0.00 0.00 0.00 79 1015.1
20260901130605 81 291 1.0 5.0 0.00 0.00 0.00 79 1015.2
20260901125604 80 10 1.0 3.0 0.00 0.00 0.00 80 1015.1
20260901125105 80 223 0.0 2.0 0.00 0.00 0.00 81 1015.2
20260901124604 80 218 0.0 2.0 0.00 0.00 0.00 82 1015.2
20260901124105 79 272 1.0 2.0 0.00 0.00 0.00 82 1015.2
20260901123604 79 280 1.0 3.0 0.00 0.00 0.00 82 1015.3
20260901123105 78 241 0.0 3.0 0.00 0.00 0.00 83 1015.2
20260901122605 77 247 0.0 3.0 0.00 0.00 0.00 85 1015.3
20260901122104 77 231 1.0 3.0 0.00 0.00 0.00 87 1015.3
20260901121604 76 179 0.0 3.0 0.00 0.00 0.00 90 1015.3
20260901120605 76 294 0.0 0.0 0.00 0.00 0.00 94 1015.3
20260901120105 75 293 0.0 2.0 0.00 0.00 0.00 94 1015.4
20260901115605 75 263 0.0 2.0 0.00 0.00 0.00 94 1015.5
20260901114104 74 220 0.0 1.0 0.00 0.00 0.00 95 1015.5
20260901113605 74 226 0.0 1.0 0.00 0.00 0.00 95 1015.5
20260901113104 73 226 0.0 1.0 0.00 0.00 0.00 95 1015.5
20260901111605 73 241 0.0 1.0 0.00 0.00 0.00 94 1015.5
20260901111104 73 236 0.0 0.0 0.00 0.00 0.00 94 1015.5
20260901110604 73 225 0.0 2.0 0.00 0.00 0.00 94 1015.4
20260901110104 73 221 0.0 1.0 0.00 0.00 0.00 94 1015.4
20260901105105 73 221 0.0 1.0 0.00 0.00 0.00 94 1015.5
20260901104604 73 221 0.0 2.0 0.00 0.00 0.00 94 1015.4
20260901104104 73 221 0.0 0.0 0.00 0.00 0.00 94 1015.5
20260901103104 73 221 0.0 1.0 0.00 0.00 0.00 94 1015.5
20260901102605 73 221 0.0 0.0 0.00 0.00 0.00 94 1015.4
20260901101604 73 141 0.0 0.0 0.00 0.00 0.00 94 1015.3
20260901101105 73 141 0.0 1.0 0.00 0.00 0.00 94 1015.2
20260901100604 73 141 0.0 1.0 0.00 0.00 0.00 94 1015.2
20260901094604 73 223 0.0 0.0 0.00 0.00 0.00 93 1015.1
20260901094104 73 223 0.0 1.0 0.00 0.00 0.00 93 1015.1
20260901093604 73 126 0.0 1.0 0.00 0.00 0.00 93 1015.2
20260901092605 73 233 0.0 0.0 0.00 0.00 0.00 93 1015.5
20260901092105 73 233 0.0 1.0 0.00 0.00 0.00 93 1015.6
20260901091604 73 233 0.0 0.0 0.00 0.00 0.00 93 1015.6
20260901091105 73 233 0.0 2.0 0.00 0.00 0.00 93 1015.6
20260901090104 73 281 0.0 0.0 0.00 0.00 0.00 93 1015.6
20260901085604 73 279 0.0 1.0 0.00 0.00 0.00 93 1015.5
20260901085104 73 279 0.0 1.0 0.00 0.00 0.00 93 1015.6
20260901084604 73 283 0.0 1.0 0.00 0.00 0.00 93 1015.6
20260901083604 74 290 0.0 3.0 0.00 0.00 0.00 93 1015.7
20260901083104 74 110 0.0 1.0 0.00 0.00 0.00 93 1015.7
20260901082604 74 112 0.0 3.0 0.00 0.00 0.00 93 1015.5
20260901082105 74 148 0.0 2.0 0.00 0.00 0.00 93 1015.5
20260901081605 73 167 0.0 0.0 0.00 0.00 0.00 92 1015.6
20260901081105 73 163 0.0 2.0 0.00 0.00 0.00 92 1015.6
20260901080605 73 237 0.0 1.0 0.00 0.00 0.00 92 1015.5
20260901075605 73 246 0.0 1.0 0.00 0.00 0.00 91 1015.5
20260901075104 73 252 0.0 2.0 0.00 0.00 0.00 91 1015.5
20260901074604 73 262 0.0 1.0 0.00 0.00 0.00 91 1015.6
20260901074104 73 131 0.0 1.0 0.00 0.00 0.00 91 1015.6
20260901073604 73 139 1.0 3.0 0.00 0.00 0.00 90 1015.6
20260901073105 73 99 0.0 1.0 0.00 0.00 0.00 90 1015.7
20260901072105 73 148 0.0 1.0 0.00 0.00 0.00 90 1015.8
20260901071604 73 80 0.0 2.0 0.00 0.00 0.00 90 1015.8
20260901070604 73 192 0.0 1.0 0.00 0.00 0.00 89 1015.8
20260901070104 73 232 0.0 1.0 0.00 0.00 0.00 89 1015.8
20260901065604 73 153 0.0 2.0 0.00 0.00 0.00 89 1015.9